Location: Eimen
(51.8766°N, 9.7806°E)
Time: 15:28:08
(UTC+00:00)

Envisat - Pass Details

Date: 17 August 2024
Orbit: 762 x 764 km, 98.3° (Epoch: 09 September)

Event Time Altitude Azimuth Distance (km) Brightness Sun altitude
Rises 02:21:58 0° 17° (NNE) 3,241 7.4 -14.4°
Reaches altitude 10° 02:24:20 10° 22° (NNE) 2,310 6.6 -14.2°
Maximum altitude 02:29:20 56° 100° (E) 906 3.6 -13.6°
Drops below altitude 10° 02:34:18 10° 179° (S) 2,292 5.1 -13.1°
Enters shadow 02:34:56 - 181° (S) 2,541 5.3 -13.0°
